User: anonymous   Login
Location: Mentone
(34.5413°N, 85.5351°W)
Time: 17:57:28
(UTC-06:00)
Language:

ERBS - Orbit

View from above orbital plane
View from above orbital plane
View from above satellite
View from above satellite

Ground track
Ground track

The orbit data is extracted from the following two-line orbital elements,

1 15354U 84108B   17326.09356471 +.00003836 +00000-0 +88976-4 0  9995
2 15354 057.0062 178.0083 0015520 062.2371 298.0256 15.44835409822323
Epoch (UTC): 22 November 2017 02:14:43
Eccentricity: 0.0015520
inclination: 57.0062°
perigee height: 421 km
apogee height: 442 km
right ascension of ascending node: 178.0083°
argument of perigee: 62.2371°
revolutions per day: 15.44835409
mean anomaly at epoch: 298.0256°
orbit number at epoch: 82232

The dashed part of the orbit path shows where the satellite is in the earth's shadow,  

DLR